2003 EH1

Japanese version
Home page
Total 6,336 html files since Dec. 4, 1995
Updated on February 20, 2004

---------------------------------------------------------------------

* Profile

Designation 2003 EH1
Discovery Date March 6, 2003
Magnitude 18.5 mag
Discoverer Lowell Observatory Near-Earth Object Search

* Orbital Elements

Perturbed ephemeris below is based on 48-day-arc unperturbed elements from MPO 48330.
Last observed on 2003 Apr. 23. 

 Epoch = 2452680.50000 TT   T = 2452694.98427 TT
 Peri. =  171.36934         a =     3.1258579 AU
 Node  =  282.94126 J2000.0 e =     0.6185487
 Incl. =   70.79685         q =     1.1923625 AU

* Magnitudes Graph

        H = 16.3  G = 0.15

---------------------------------------------------------------------

The orbital elements are calculated using the Minor Planet & Comet Ephemeris Service.
The magnitudes graphs are made with Comet for Windows.

---------------------------------------------------------------------

Copyright(C) 1995-2008 Seiichi Yoshida (comet@aerith.net). All rights reserved.